Location: *
(50.8512°N, 5.6907°E)
Time: 16:55:31
(UTC+00:00)

ATLAS CENTAUR R/B - Pass Details

Date: 09 April 2020
Orbit: 466 x 681 km, 64.7° (Epoch: 26 May)

Event Time Altitude Azimuth Distance (km) Brightness Sun altitude
Rises 20:14:57 0° 320° (NW) 2,708 6.4 -16.6°
Reaches altitude 10° 20:17:21 10° 330° (NNW) 1,775 5.0 -16.9°
Maximum altitude 20:21:01 36° 38° (NE) 817 2.1 -17.4°
Enters shadow 20:22:10 29° 76° (ENE) 944 2.2 -17.5°
